Flag for France Weather past 2 weeks in Ajaccio, Corsica, France

39 °F

Passing clouds.

Feels Like: 35 °F
Forecast: 45 / 57 °F
Wind: 6 mph from Northeast

Location: Ajaccio Airport

Current Time: Nov 28, 2015 at 3:57:32 AM

Latest Report: Nov 28, 2015 at 3:30 AM

Visibility: N/A

Pressure: 29.89 "Hg

Humidity: 87%

Dew point: 36 °F

Location of AjaccioLocation

Historic Weather in Ajaccio — Graph


Ajaccio temperature yesterday

Maximum temperature yesterday: 61 °F (at 1:00 PM)
Minimum temperature yesterday: 39 °F (at 12:00 AM)
Average temperature yesterday: 47 °F

Past Weeks' High & Low Weather Summary

High70 °F (Nov 19, 1:00 PM)100% (Nov 15, 4:00 AM)30.36 "Hg (Nov 15, 4:00 AM)
Low39 °F (Nov 25, 2:00 AM)27% (Nov 26, 12:30 PM)29.39 "Hg (Nov 21, 6:30 PM)
Average55 °F77%29.97 "Hg
* Reported Nov 13 2:00 AM — Nov 28 2:30 AM, Ajaccio, Weather by CustomWeather, © 2015

Note: Actual official high and low records may vary slightly from our data, if they occured in-between our weather recording intervals... More about our weather records


Ajaccio weather history for previous 24 hours

Time TempWeatherWind HumidityBarometerVisibility
2:30 AM
Sat, Nov 28
41 °FPassing clouds.7 mph81%29.89 "HgN/A
12:30 AM39 °FClear.8 mph87%29.89 "Hg10 mi
12:00 AM41 °FClear.8 mph81%29.86 "Hg10 mi
11:30 PM
Fri, Nov 27
41 °FClear.9 mph81%29.86 "Hg10 mi
11:00 PM41 °FClear.5 mph81%29.86 "Hg10 mi
10:30 PM41 °FPassing clouds.7 mph87%29.86 "HgN/A
10:00 PM41 °FClear.7 mph81%29.83 "Hg10 mi
9:30 PM41 °FClear.6 mph87%29.83 "Hg10 mi
9:00 PM43 °FClear.6 mph81%29.83 "Hg10 mi
8:30 PM45 °FClear.3 mph76%29.83 "Hg10 mi
8:00 PM45 °FClear.8 mph76%29.83 "Hg10 mi
7:30 PM46 °FPassing clouds.6 mph71%29.80 "HgN/A
7:00 PM46 °FClear.8 mph76%29.80 "Hg10 mi
6:30 PM48 °FClear.6 mph71%29.80 "Hg10 mi
6:00 PM48 °FPassing clouds.7 mph71%29.80 "HgN/A
5:30 PM52 °FPassing clouds.6 mph62%29.77 "HgN/A
5:00 PM54 °FPassing clouds.3 mph58%29.77 "HgN/A
4:41 PM57 °FPassing clouds.2 mph48%29.77 "HgN/A
4:00 PM61 °FPassing clouds.2 mph42%29.77 "HgN/A
3:30 PM61 °FPassing clouds.5 mph39%29.74 "HgN/A
3:00 PM61 °FPassing clouds.5 mph39%29.74 "HgN/A
2:30 PM61 °FPassing clouds.3 mph39%29.74 "HgN/A
2:00 PM61 °FPassing clouds.6 mph39%29.74 "HgN/A
1:30 PM61 °FPassing clouds.6 mph39%29.74 "HgN/A
1:00 PM61 °FPassing clouds.6 mph36%29.77 "HgN/A
12:30 PM59 °FPassing clouds.3 mph42%29.77 "HgN/A
12:00 PM57 °FScattered clouds.5 mph48%29.77 "HgN/A
11:30 AM54 °FScattered clouds.2 mph51%29.77 "HgN/A
11:00 AM52 °FScattered clouds.1 mph62%29.77 "HgN/A
10:38 AM50 °FScattered clouds.2 mph67%29.77 "HgN/A
10:00 AM48 °FScattered clouds.5 mph71%29.77 "HgN/A
9:30 AM48 °FBroken clouds.2 mph66%29.77 "HgN/A
9:00 AM45 °FBroken clouds.7 mph81%29.74 "HgN/A
7:30 AM43 °FBroken clouds.5 mph76%29.71 "HgN/A
7:00 AM43 °FPartly cloudy.5 mph81%29.71 "HgN/A
6:30 AM41 °FPartly cloudy.6 mph81%29.68 "HgN/A
6:00 AM43 °FPartly cloudy.5 mph76%29.68 "HgN/A
5:30 AM41 °FOvercast.6 mph81%29.68 "HgN/A
5:00 AM41 °FPassing clouds.3 mph81%29.68 "HgN/A
4:30 AM41 °FClear.5 mph87%29.68 "Hg10 mi
4:00 AM41 °FClear.6 mph81%29.68 "Hg10 mi
3:30 AM41 °FClear.2 mph81%29.68 "Hg10 mi
3:00 AM41 °FClear.6 mph81%29.68 "Hg10 mi
Weather by CustomWeather, © 2015

See weather overviewHow to use our weather pages